Showing default

ORBCOMM FM 104, 40090

Orbit data source: Space-Track

ORBCOMM FM 104, 40090 is a payload satellite owned by Orbcomm (US) in LEO that was launched on Mon, 14 Jul 2014 UTC via an FALCON 9 launch vehicle from the Air Force Eastern Test Range (AFETR). Payload-class satellites include a variety of spacecraft equipped with specific instruments for various scientific and technological missions. These include communications satellites like Starlink; space stations such as the ISS; scientific satellites like the Hubble; Earth observation satellites from companies like Planet Labs, Umbra, and HawkEye 360; GPS; miniature CubeSats for education and research; and military/defense satellites.

Loading next visibility...
Identifier
40090, 2014-040E
Orbit
LEO
Last TLE update
17 hours ago
Origin
Manufacturer
SNC Louisville
Mission
Non-operational Commercial Communications
Bus & Motor
SN-100A, Unknown motor
Mass
172 kg wet, 158 kg dry
Launch date (UTC)
2014-07-14 (11 years ago)
Launch vehicle
FALCON 9
Launch site
Air Force Eastern Test Range (AFETR)
Object type
Payload
Rocket body
Debris
Shape & HBR
Box + 1 Pan + 1 Ant, 13 m
Radar Cross Section
2.222 m², Medium (>0.1 m² and < 1m²)

Expand to show TLE details & history

TLE from 17 hours ago
0 ORBCOMM FM 104
1 40090U 14040E   25181.71443189  .00000246  00000-0  92251-4 0  9991
2 40090  47.0066 347.1363 0016942 266.0012  93.8936 14.56659651582599
Epoch: 2025-06-30T17:08Z
TLE epoch observation values (Epoch: 2025-06-30T17:08:46.915Z)
Latitude
-0.00003°
Longitude
170.92052°
Altitude
705.031 km
Speed
7.504 km/s
True Right ascension
23h 08m 32s
True Declination
0° 00' 00"
Sunlit
Object was in daylight at epoch
Visualization orbit readout
Latitude
47.07652°
Longitude
-98.01264°
Altitude
720.476 km
Speed
7.495 km/s
Apparent Right ascension
07h 27m 29s
Apparent Declination
7° 44' 15"
Sunlit
Object is in daylight
Visualization observer readout
Local Sidereal Time
21:40:24
Azimuth
40.53° NE
Elevation
-33.321°
Doppler factor
1
Orbital elements
Apogee altitude
717.214 km
Perigee altitude
693.212 km
Semi-major axis
7,083.35 km
Eccentricity
0.00169
Inclination
47.0066°
RAAN
347.1363°
Arg. of periapsis
266.0012°
True anomaly
Unknown
Mean anomaly
93.8936°
Eccentric anomaly
Unknown
Mean motion
3.6407 °/min
Orbital period
98.88 mins
BSTAR
0.000092251
Loading maneuver chart data...
Loading SW <> Apogee altitude chart data...
Loading historical data...
Loading historical data...
Loading historical data...
Loading historical data...
Loading historical data...
Loading historical data...
Loading historical data...

ORBCOMM FM 104 Visibility forecast

Observer location: undefined°, undefined°

Span
Click to sort rows by Start time (UTC) header in descending order
Start Az.
Max El. time (UTC)
Max El. Az.
Max El.
End time (UTC)
End Az.
8 mins2025-07-01 13:03:01.709Z191.254° SSW2025-07-01 13:07:01.709Z134.964° SE24.06°2025-07-01 13:11:01.709Z81.504° E
8 mins2025-07-01 14:47:01.709Z248.818° W2025-07-01 14:50:01.709Z303.337° NW44.256°2025-07-01 14:55:01.709Z60.49° ENE
8 mins2025-07-01 16:31:01.709Z292.528° NW2025-07-01 16:34:01.709Z343.703° N31.738°2025-07-01 16:39:01.709Z61.704° ENE
8 mins2025-07-01 18:15:01.709Z306.21° NW2025-07-01 18:19:01.709Z23.168° NE34.636°2025-07-01 18:23:01.709Z83.636° E
8 mins2025-07-01 19:59:01.709Z293.34° NW2025-07-01 20:03:01.709Z175.82° S42.927°2025-07-01 20:07:01.709Z129.37° SE
4 mins2025-07-01 21:44:01.709Z249.377° W2025-07-01 21:46:01.709Z222.144° SW15.234°2025-07-01 21:48:01.709Z196.905° SSW
|